When you browse on this site, cookies collect data to enhance your experience and personalize the content and advertising you see.
Visit our Privacy Policy to learn more. By continuing to use the site, you agree to this use of cookies and data.
  • In Hungary
  • List of Countries
  • For 7 days
  • Water Temperature
  • Satellite Maps
  • Weather Map
  • News
  • Weather Widgets
  • user-avatar
    Login

    Hourly Weather Santa Barbara

    Today, 26 June, Wednesday

    Time Temperature Precipitation Wind Pressure Humidity
    00:00 +19°C° 0 mm 1 mps 755 mmHg 89%
    01:00 +19°C° 0 mm 1 mps 755 mmHg 88%
    02:00 +19°C° 0 mm 1 mps 755 mmHg 86%
    03:00 +18°C° 0 mm 1 mps 755 mmHg 84%
    04:00 +18°C° 0 mm 1 mps 755 mmHg 82%
    05:00 +19°C° 0 mm 1 mps 755 mmHg 77%
    06:00 +21°C° 0 mm 1 mps 755 mmHg 72%
    07:00 +22°C° 0 mm 1 mps 755 mmHg 67%
    08:00 +24°C° 0 mm 2 mps 756 mmHg 62%
    09:00 +25°C° 0 mm 2 mps 756 mmHg 57%
    10:00 +27°C° 0 mm 2 mps 756 mmHg 51%
    11:00 +28°C° 0 mm 2 mps 756 mmHg 50%
    12:00 +28°C° 0 mm 3 mps 756 mmHg 48%
    13:00 +29°C° 0 mm 3 mps 756 mmHg 46%
    14:00 +29°C° 0 mm 3 mps 756 mmHg 46%
    15:00 +28°C° 0 mm 3 mps 756 mmHg 47%
    16:00 +28°C° 0 mm 3 mps 756 mmHg 48%
    17:00 +26°C° 0 mm 2 mps 756 mmHg 53%
    18:00 +25°C° 0 mm 2 mps 756 mmHg 57%
    19:00 +23°C° 0 mm 1 mps 756 mmHg 62%
    20:00 +22°C° 0 mm 1 mps 756 mmHg 63%
    21:00 +21°C° 0 mm 1 mps 756 mmHg 64%
    22:00 +20°C° 0 mm 1 mps 757 mmHg 65%
    23:00 +20°C° 0 mm 1 mps 757 mmHg 64%

    Tomorrow, 27 June, Thursday

    Time Temperature Precipitation Wind Pressure Humidity
    00:00 +19°C° 0 mm 1 mps 757 mmHg 63%
    01:00 +19°C° 0 mm 1 mps 756 mmHg 62%
    02:00 +19°C° 0 mm 1 mps 757 mmHg 62%
    03:00 +19°C° 0 mm 1 mps 757 mmHg 61%
    04:00 +18°C° 0 mm 1 mps 757 mmHg 61%
    05:00 +21°C° 0 mm 1 mps 757 mmHg 56%
    06:00 +23°C° 0 mm 1 mps 757 mmHg 50%
    07:00 +25°C° 0 mm 1 mps 757 mmHg 44%
    08:00 +26°C° 0 mm 1 mps 757 mmHg 42%
    09:00 +28°C° 0 mm 1 mps 757 mmHg 40%
    10:00 +29°C° 0 mm 2 mps 757 mmHg 37%
    11:00 +30°C° 0 mm 2 mps 757 mmHg 36%
    12:00 +30°C° 0 mm 3 mps 757 mmHg 35%
    13:00 +31°C° 0 mm 3 mps 757 mmHg 34%
    14:00 +31°C° 0 mm 3 mps 757 mmHg 33%
    15:00 +31°C° 0 mm 3 mps 757 mmHg 33%
    16:00 +31°C° 0 mm 3 mps 756 mmHg 32%
    17:00 +29°C° 0 mm 3 mps 756 mmHg 39%
    18:00 +26°C° 0 mm 2 mps 756 mmHg 45%
    19:00 +24°C° 0 mm 2 mps 756 mmHg 51%
    20:00 +23°C° 0 mm 2 mps 756 mmHg 51%
    21:00 +21°C° 0 mm 2 mps 757 mmHg 51%
    22:00 +21°C° 0 mm 2 mps 757 mmHg 50%
    23:00 +20°C° 0 mm 2 mps 757 mmHg 49%

    Day after tomorrow, 28 June, Friday

    Time Temperature Precipitation Wind Pressure Humidity
    00:00 +20°C° 0 mm 2 mps 757 mmHg 48%
    01:00 +20°C° 0 mm 3 mps 757 mmHg 47%
    02:00 +20°C° 0 mm 2 mps 756 mmHg 48%
    03:00 +19°C° 0 mm 2 mps 756 mmHg 48%
    04:00 +20°C° 0 mm 1 mps 756 mmHg 49%
    05:00 +22°C° 0 mm 1 mps 756 mmHg 44%
    06:00 +24°C° 0 mm 1 mps 757 mmHg 38%
    07:00 +26°C° 0 mm 1 mps 757 mmHg 33%
    08:00 +28°C° 0 mm 1 mps 757 mmHg 32%
    09:00 +29°C° 0 mm 1 mps 757 mmHg 30%
    10:00 +31°C° 0 mm 2 mps 757 mmHg 29%
    11:00 +31°C° 0 mm 2 mps 757 mmHg 29%
    12:00 +31°C° 0 mm 3 mps 756 mmHg 29%
    13:00 +33°C° 0 mm 3 mps 756 mmHg 30%
    14:00 +33°C° 0 mm 3 mps 756 mmHg 29%
    15:00 +33°C° 0 mm 3 mps 756 mmHg 29%
    16:00 +33°C° 0 mm 3 mps 755 mmHg 29%
    17:00 +30°C° 0 mm 3 mps 756 mmHg 33%
    18:00 +27°C° 0 mm 2 mps 756 mmHg 38%
    19:00 +25°C° 0 mm 1 mps 756 mmHg 43%
    20:00 +24°C° 0 mm 2 mps 756 mmHg 44%
    21:00 +23°C° 0 mm 2 mps 757 mmHg 44%
    22:00 +21°C° 0 mm 2 mps 757 mmHg 44%
    23:00 +21°C° 0 mm 2 mps 757 mmHg 43%

    29 June, Saturday

    Time Temperature Precipitation Wind Pressure Humidity
    00:00 +21°C° 0 mm 2 mps 757 mmHg 41%
    01:00 +21°C° 0 mm 2 mps 756 mmHg 40%
    02:00 +21°C° 0 mm 1 mps 756 mmHg 41%
    03:00 +21°C° 0 mm 1 mps 756 mmHg 42%
    04:00 +20°C° 0 mm 1 mps 756 mmHg 42%
    05:00 +23°C° 0 mm 1 mps 756 mmHg 38%
    06:00 +25°C° 0 mm 1 mps 756 mmHg 34%
    07:00 +27°C° 0 mm 1 mps 756 mmHg 30%
    08:00 +29°C° 0 mm 1 mps 756 mmHg 28%
    09:00 +31°C° 0 mm 2 mps 757 mmHg 26%
    10:00 +32°C° 0 mm 2 mps 757 mmHg 24%
    11:00 +34°C° 0 mm 2 mps 756 mmHg 23%
    12:00 +34°C° 0 mm 3 mps 756 mmHg 21%
    13:00 +35°C° 0 mm 3 mps 756 mmHg 20%
    14:00 +34°C° 0 mm 3 mps 756 mmHg 21%
    15:00 +34°C° 0 mm 3 mps 755 mmHg 21%
    16:00 +33°C° 0 mm 3 mps 755 mmHg 22%
    17:00 +30°C° 0 mm 2 mps 755 mmHg 29%
    18:00 +27°C° 0 mm 2 mps 755 mmHg 36%
    19:00 +25°C° 0 mm 1 mps 755 mmHg 43%
    20:00 +24°C° 0 mm 2 mps 756 mmHg 44%
    21:00 +23°C° 0 mm 2 mps 756 mmHg 45%
    22:00 +21°C° 0 mm 2 mps 757 mmHg 47%
    23:00 +21°C° 0 mm 2 mps 757 mmHg 47%

    30 June, Sunday

    Time Temperature Precipitation Wind Pressure Humidity
    00:00 +21°C° 0 mm 2 mps 756 mmHg 47%
    01:00 +20°C° 0 mm 2 mps 756 mmHg 48%
    02:00 +20°C° 0 mm 2 mps 756 mmHg 48%
    03:00 +20°C° 0 mm 2 mps 756 mmHg 48%
    04:00 +20°C° 0 mm 2 mps 756 mmHg 48%
    05:00 +23°C° 0 mm 2 mps 756 mmHg 44%
    06:00 +25°C° 0 mm 2 mps 757 mmHg 39%
    07:00 +27°C° 0 mm 1 mps 757 mmHg 34%
    08:00 +29°C° 0 mm 2 mps 757 mmHg 32%
    09:00 +30°C° 0 mm 2 mps 757 mmHg 29%
    10:00 +33°C° 0 mm 3 mps 757 mmHg 27%
    11:00 +33°C° 0 mm 3 mps 757 mmHg 26%
    12:00 +34°C° 0 mm 4 mps 757 mmHg 26%
    13:00 +34°C° 0 mm 4 mps 756 mmHg 26%
    14:00 +34°C° 0 mm 4 mps 756 mmHg 25%
    15:00 +34°C° 0 mm 4 mps 756 mmHg 25%
    16:00 +34°C° 0 mm 4 mps 755 mmHg 25%
    17:00 +30°C° 0 mm 4 mps 755 mmHg 31%
    18:00 +28°C° 0 mm 3 mps 755 mmHg 37%
    19:00 +25°C° 0 mm 3 mps 755 mmHg 42%
    20:00 +24°C° 0 mm 3 mps 756 mmHg 42%
    21:00 +24°C° 0 mm 3 mps 756 mmHg 42%
    22:00 +22°C° 0 mm 3 mps 756 mmHg 43%
    23:00 +22°C° 0 mm 3 mps 756 mmHg 40%

    1 July, Monday

    Time Temperature Precipitation Wind Pressure Humidity
    00:00 +22°C° 0 mm 3 mps 756 mmHg 38%
    01:00 +22°C° 0 mm 3 mps 756 mmHg 35%
    02:00 +21°C° 0 mm 3 mps 756 mmHg 36%
    03:00 +21°C° 0 mm 2 mps 756 mmHg 37%
    04:00 +21°C° 0 mm 2 mps 756 mmHg 39%
    05:00 +24°C° 0 mm 2 mps 756 mmHg 34%
    06:00 +26°C° 0 mm 1 mps 756 mmHg 30%
    07:00 +28°C° 0 mm 1 mps 756 mmHg 26%
    08:00 +29°C° 0 mm 1 mps 756 mmHg 25%
    09:00 +31°C° 0 mm 2 mps 756 mmHg 25%
    10:00 +32°C° 0 mm 2 mps 756 mmHg 24%
    11:00 +34°C° 0 mm 2 mps 756 mmHg 24%
    12:00 +34°C° 0 mm 3 mps 756 mmHg 23%
    13:00 +35°C° 0 mm 3 mps 755 mmHg 23%
    14:00 +35°C° 0 mm 3 mps 755 mmHg 23%
    15:00 +35°C° 0 mm 3 mps 755 mmHg 23%
    16:00 +35°C° 0 mm 3 mps 754 mmHg 23%
    17:00 +31°C° 0 mm 3 mps 754 mmHg 28%
    18:00 +28°C° 0 mm 3 mps 754 mmHg 33%
    19:00 +26°C° 0 mm 3 mps 754 mmHg 38%
    20:00 +25°C° 0 mm 3 mps 754 mmHg 37%
    21:00 +24°C° 0 mm 3 mps 755 mmHg 36%
    22:00 +22°C° 0 mm 3 mps 755 mmHg 36%
    23:00 +23°C° 0 mm 2 mps 755 mmHg 36%
    Show more